Time,TemperatureF,DewpointF,PressureIn,WindDirection,WindDirectionDegrees,WindSpeedMPH,WindSpeedGustMPH,Humidity,HourlyPrecipIn,Conditions,Clouds,dailyrainin,SoftwareType,DateUTC
2013-08-10 00:00:00,75.7,73.8,30.08,WSW,253,0.0,0.0,94,0.00,,,0.00,Wunderground v.1.15,2013-08-10 04:00:00,
2013-08-10 00:05:00,75.6,73.8,30.08,WSW,253,0.0,0.0,94,0.00,,,0.00,Wunderground v.1.15,2013-08-10 04:05:00,
2013-08-10 00:10:00,75.5,73.7,30.08,WSW,253,0.0,0.0,94,0.00,,,0.00,Wunderground v.1.15,2013-08-10 04:10:00,
2013-08-10 00:15:00,75.5,74.0,30.08,WSW,253,0.0,0.0,95,0.00,,,0.00,Wunderground v.1.15,2013-08-10 04:15:00,
2013-08-10 00:20:00,75.6,73.8,30.08,WSW,253,0.0,0.0,94,0.00,,,0.00,Wunderground v.1.15,2013-08-10 04:20:00,
2013-08-10 00:25:00,75.6,73.8,30.08,WSW,253,0.0,0.0,94,0.00,,,0.00,Wunderground v.1.15,2013-08-10 04:25:00,
2013-08-10 00:30:00,75.5,73.7,30.08,WSW,253,0.0,0.0,94,0.00,,,0.00,Wunderground v.1.15,2013-08-10 04:30:00,
2013-08-10 00:35:00,75.4,73.6,30.08,WSW,253,0.0,0.0,94,0.00,,,0.00,Wunderground v.1.15,2013-08-10 04:35:00,
2013-08-10 00:45:00,75.2,73.7,30.08,WSW,253,0.0,0.0,95,0.00,,,0.00,Wunderground v.1.15,2013-08-10 04:45:00,
2013-08-10 00:50:00,75.1,73.6,30.08,WSW,253,0.0,0.0,95,0.00,,,0.00,Wunderground v.1.15,2013-08-10 04:50:00,
2013-08-10 00:55:00,75.2,73.7,30.08,WSW,253,0.0,0.0,95,0.00,,,0.00,Wunderground v.1.15,2013-08-10 04:55:00,
2013-08-10 01:00:00,75.2,73.7,30.07,WSW,253,0.0,0.0,95,0.00,,,0.00,Wunderground v.1.15,2013-08-10 05:00:00,
2013-08-10 01:10:00,75.0,73.5,30.07,WSW,253,0.0,0.0,95,0.00,,,0.00,Wunderground v.1.15,2013-08-10 05:10:00,
2013-08-10 01:20:00,75.0,73.5,30.07,WSW,253,0.0,0.0,95,0.00,,,0.00,Wunderground v.1.15,2013-08-10 05:20:00,
2013-08-10 01:25:00,75.1,73.6,30.07,WSW,253,0.0,0.0,95,0.00,,,0.00,Wunderground v.1.15,2013-08-10 05:25:00,
2013-08-10 01:30:00,75.1,73.3,30.07,WSW,253,0.0,0.0,94,0.00,,,0.00,Wunderground v.1.15,2013-08-10 05:30:00,
2013-08-10 01:40:00,74.9,73.1,30.07,WSW,252,0.0,0.0,94,0.00,,,0.00,Wunderground v.1.15,2013-08-10 05:40:00,
2013-08-10 01:45:00,74.8,73.3,30.07,WSW,252,0.0,0.0,95,0.00,,,0.00,Wunderground v.1.15,2013-08-10 05:45:00,
2013-08-10 01:55:00,74.7,73.2,30.07,WSW,253,0.0,0.0,95,0.00,,,0.00,Wunderground v.1.15,2013-08-10 05:55:00,
2013-08-10 02:00:00,74.7,73.2,30.07,WSW,252,0.0,0.0,95,0.00,,,0.00,Wunderground v.1.15,2013-08-10 06:00:00,
2013-08-10 02:10:00,74.8,73.3,30.07,WSW,252,0.0,0.0,95,0.00,,,0.00,Wunderground v.1.15,2013-08-10 06:10:00,
2013-08-10 02:15:00,74.7,73.2,30.07,WSW,252,0.0,0.0,95,0.00,,,0.00,Wunderground v.1.15,2013-08-10 06:15:00,
2013-08-10 02:20:00,74.7,73.2,30.07,WSW,252,0.0,0.0,95,0.00,,,0.00,Wunderground v.1.15,2013-08-10 06:20:00,
2013-08-10 02:30:00,74.7,73.2,30.07,WSW,252,0.0,0.0,95,0.00,,,0.00,Wunderground v.1.15,2013-08-10 06:30:00,
2013-08-10 02:35:00,74.7,73.2,30.06,WSW,252,0.0,0.0,95,0.00,,,0.00,Wunderground v.1.15,2013-08-10 06:35:00,
2013-08-10 02:45:00,74.6,73.4,30.06,WSW,252,0.0,0.0,96,0.00,,,0.00,Wunderground v.1.15,2013-08-10 06:45:00,
2013-08-10 02:50:00,74.6,73.4,30.05,WSW,252,0.0,0.0,96,0.00,,,0.00,Wunderground v.1.15,2013-08-10 06:50:00,
2013-08-10 03:00:00,74.5,73.3,30.06,WSW,252,0.0,0.0,96,0.00,,,0.00,Wunderground v.1.15,2013-08-10 07:00:00,
2013-08-10 03:10:00,74.4,73.2,30.05,WSW,252,0.0,0.0,96,0.00,,,0.00,Wunderground v.1.15,2013-08-10 07:10:00,
2013-08-10 03:20:00,74.4,73.2,30.05,WSW,252,0.0,0.0,96,0.00,,,0.00,Wunderground v.1.15,2013-08-10 07:20:00,
2013-08-10 03:25:00,74.4,73.2,30.05,WSW,252,0.0,0.0,96,0.00,,,0.00,Wunderground v.1.15,2013-08-10 07:25:00,
2013-08-10 03:35:00,74.3,73.4,30.05,WSW,252,0.0,0.0,97,0.00,,,0.00,Wunderground v.1.15,2013-08-10 07:35:00,
2013-08-10 03:40:00,74.3,73.4,30.05,WSW,252,0.0,0.0,97,0.00,,,0.00,Wunderground v.1.15,2013-08-10 07:40:00,
2013-08-10 03:45:00,74.2,73.0,30.05,WSW,252,0.0,0.0,96,0.00,,,0.00,Wunderground v.1.15,2013-08-10 07:45:00,
2013-08-10 03:50:00,74.1,72.9,30.05,WSW,252,0.0,0.0,96,0.00,,,0.00,Wunderground v.1.15,2013-08-10 07:50:00,
2013-08-10 03:55:00,74.1,72.9,30.05,WSW,252,0.0,0.0,96,0.00,,,0.00,Wunderground v.1.15,2013-08-10 07:55:00,
2013-08-10 04:00:00,74.1,73.2,30.05,WSW,252,0.0,0.0,97,0.00,,,0.00,Wunderground v.1.15,2013-08-10 08:00:00,
2013-08-10 04:10:00,74.2,73.0,30.05,WSW,252,0.0,0.0,96,0.00,,,0.00,Wunderground v.1.15,2013-08-10 08:10:00,
2013-08-10 04:15:00,74.3,73.1,30.05,WSW,252,0.0,0.0,96,0.00,,,0.00,Wunderground v.1.15,2013-08-10 08:15:00,
2013-08-10 04:20:00,74.2,73.0,30.05,WSW,252,0.0,0.0,96,0.00,,,0.00,Wunderground v.1.15,2013-08-10 08:20:00,
2013-08-10 04:30:00,74.2,73.0,30.06,WSW,252,0.0,0.0,96,0.00,,,0.00,Wunderground v.1.15,2013-08-10 08:30:00,
2013-08-10 04:35:00,74.1,72.9,30.05,WSW,252,0.0,0.0,96,0.00,,,0.00,Wunderground v.1.15,2013-08-10 08:35:00,
2013-08-10 04:40:00,74.1,72.9,30.05,WSW,252,0.0,0.0,96,0.00,,,0.00,Wunderground v.1.15,2013-08-10 08:40:00,
2013-08-10 04:45:00,74.1,72.9,30.05,WSW,252,0.0,0.0,96,0.00,,,0.00,Wunderground v.1.15,2013-08-10 08:45:00,
2013-08-10 04:55:00,74.1,72.9,30.05,WSW,252,0.0,0.0,96,0.00,,,0.00,Wunderground v.1.15,2013-08-10 08:55:00,
2013-08-10 05:00:00,74.0,72.8,30.05,WSW,252,0.0,0.0,96,0.00,,,0.00,Wunderground v.1.15,2013-08-10 09:00:00,
2013-08-10 05:10:00,74.0,72.8,30.05,WSW,252,0.0,0.0,96,0.00,,,0.00,Wunderground v.1.15,2013-08-10 09:10:00,
2013-08-10 05:15:00,74.2,73.3,30.05,WSW,252,0.0,0.0,97,0.00,,,0.00,Wunderground v.1.15,2013-08-10 09:15:00,
2013-08-10 05:20:00,74.3,73.4,30.05,WSW,252,0.0,0.0,97,0.00,,,0.00,Wunderground v.1.15,2013-08-10 09:20:00,
2013-08-10 05:25:00,74.3,73.4,30.05,WSW,252,0.0,0.0,97,0.00,,,0.00,Wunderground v.1.15,2013-08-10 09:25:00,
2013-08-10 05:30:00,74.3,73.4,30.05,WSW,252,0.0,0.0,97,0.00,,,0.00,Wunderground v.1.15,2013-08-10 09:30:00,
2013-08-10 05:35:00,74.4,73.5,30.05,WSW,252,0.0,0.0,97,0.00,,,0.00,Wunderground v.1.15,2013-08-10 09:35:00,
2013-08-10 05:40:00,74.3,73.1,30.05,WSW,252,0.0,0.0,96,0.00,,,0.00,Wunderground v.1.15,2013-08-10 09:40:00,
2013-08-10 05:50:00,74.3,73.4,30.05,WSW,252,0.0,0.0,97,0.00,,,0.00,Wunderground v.1.15,2013-08-10 09:50:00,
2013-08-10 05:55:00,74.4,73.5,30.05,WSW,252,0.0,0.0,97,0.00,,,0.00,Wunderground v.1.15,2013-08-10 09:55:00,
2013-08-10 06:00:00,74.4,73.5,30.05,WSW,252,0.0,0.0,97,0.00,,,0.00,Wunderground v.1.15,2013-08-10 10:00:00,
2013-08-10 06:10:00,74.4,73.5,30.06,WSW,252,0.0,0.0,97,0.00,,,0.00,Wunderground v.1.15,2013-08-10 10:10:00,
2013-08-10 06:15:00,74.4,73.5,30.06,WSW,252,0.0,0.0,97,0.00,,,0.00,Wunderground v.1.15,2013-08-10 10:15:00,
2013-08-10 06:25:00,74.5,73.6,30.06,WSW,253,0.0,0.0,97,0.00,,,0.00,Wunderground v.1.15,2013-08-10 10:25:00,
2013-08-10 06:35:00,74.8,73.9,30.06,WSW,252,0.0,1.0,97,0.00,,,0.00,Wunderground v.1.15,2013-08-10 10:35:00,
2013-08-10 06:40:00,74.7,73.8,30.06,WSW,252,0.0,0.0,97,0.00,,,0.00,Wunderground v.1.15,2013-08-10 10:40:00,
2013-08-10 06:45:00,74.7,73.8,30.06,WSW,252,0.0,0.0,97,0.00,,,0.00,Wunderground v.1.15,2013-08-10 10:45:00,
2013-08-10 06:55:00,74.7,73.8,30.07,WSW,252,0.0,0.0,97,0.00,,,0.00,Wunderground v.1.15,2013-08-10 10:55:00,
2013-08-10 07:00:00,74.7,73.8,30.07,WSW,252,0.0,0.0,97,0.00,,,0.00,Wunderground v.1.15,2013-08-10 11:00:00,
2013-08-10 07:10:00,74.8,73.9,30.07,WSW,252,0.0,0.0,97,0.00,,,0.00,Wunderground v.1.15,2013-08-10 11:10:00,
2013-08-10 07:15:00,74.9,74.0,30.07,WSW,252,0.0,0.0,97,0.00,,,0.00,Wunderground v.1.15,2013-08-10 11:15:00,
2013-08-10 07:20:00,75.0,74.1,30.07,WSW,252,0.0,0.0,97,0.00,,,0.00,Wunderground v.1.15,2013-08-10 11:20:00,
2013-08-10 07:30:00,75.2,74.3,30.07,WSW,253,0.0,0.0,97,0.00,,,0.00,Wunderground v.1.15,2013-08-10 11:30:00,
2013-08-10 07:40:00,75.6,74.7,30.08,WSW,252,0.0,0.0,97,0.00,,,0.00,Wunderground v.1.15,2013-08-10 11:40:00,
2013-08-10 07:50:00,76.1,75.2,30.08,WSW,252,0.0,0.0,97,0.00,,,0.00,Wunderground v.1.15,2013-08-10 11:50:00,
2013-08-10 08:00:00,76.6,75.4,30.08,WSW,252,0.0,2.0,96,0.00,,,0.00,Wunderground v.1.15,2013-08-10 12:00:00,
2013-08-10 08:10:00,77.4,76.2,30.08,WSW,252,0.0,2.0,96,0.00,,,0.00,Wunderground v.1.15,2013-08-10 12:10:00,
2013-08-10 08:15:00,77.8,76.3,30.08,WSW,252,0.0,2.0,95,0.00,,,0.00,Wunderground v.1.15,2013-08-10 12:15:00,
2013-08-10 08:20:00,78.2,76.3,30.08,WSW,251,0.0,2.0,94,0.00,,,0.00,Wunderground v.1.15,2013-08-10 12:20:00,
2013-08-10 08:25:00,78.5,76.3,30.08,WSW,246,1.0,5.0,93,0.00,,,0.00,Wunderground v.1.15,2013-08-10 12:25:00,
2013-08-10 08:35:00,79.4,76.9,30.09,WSW,246,0.0,2.0,92,0.00,,,0.00,Wunderground v.1.15,2013-08-10 12:35:00,
2013-08-10 08:40:00,79.9,77.4,30.09,WSW,246,0.0,2.0,92,0.00,,,0.00,Wunderground v.1.15,2013-08-10 12:40:00,
2013-08-10 08:45:00,80.2,77.3,30.09,WSW,246,0.0,2.0,91,0.00,,,0.00,Wunderground v.1.15,2013-08-10 12:45:00,
2013-08-10 08:50:00,80.7,77.8,30.09,WSW,246,0.0,2.0,91,0.00,,,0.00,Wunderground v.1.15,2013-08-10 12:50:00,
2013-08-10 08:55:00,81.2,78.0,30.10,WSW,246,0.0,2.0,90,0.00,,,0.00,Wunderground v.1.15,2013-08-10 12:55:00,
2013-08-10 09:00:00,81.4,77.8,30.10,WSW,246,0.0,3.0,89,0.00,,,0.00,Wunderground v.1.15,2013-08-10 13:00:00,
2013-08-10 09:10:00,82.1,77.8,30.10,SSE,163,1.0,1.0,87,0.00,,,0.00,Wunderground v.1.15,2013-08-10 13:10:00,
2013-08-10 09:15:00,82.5,78.2,30.10,ESE,117,2.0,2.0,87,0.00,,,0.00,Wunderground v.1.15,2013-08-10 13:15:00,
2013-08-10 09:20:00,83.0,78.0,30.10,ESE,105,2.0,6.0,85,0.00,,,0.00,Wunderground v.1.15,2013-08-10 13:20:00,
2013-08-10 09:25:00,83.2,78.2,30.11,East,80,3.0,6.0,85,0.00,,,0.00,Wunderground v.1.15,2013-08-10 13:25:00,
2013-08-10 09:30:00,83.4,78.1,30.11,ENE,58,3.0,3.0,84,0.00,,,0.00,Wunderground v.1.15,2013-08-10 13:30:00,
2013-08-10 09:40:00,83.7,78.0,30.11,NNE,26,3.0,4.0,83,0.00,,,0.00,Wunderground v.1.15,2013-08-10 13:40:00,
2013-08-10 09:45:00,84.2,78.5,30.11,NNE,28,3.0,4.0,83,0.00,,,0.00,Wunderground v.1.15,2013-08-10 13:45:00,
2013-08-10 09:50:00,84.5,78.4,30.11,NE,46,3.0,3.0,82,0.00,,,0.00,Wunderground v.1.15,2013-08-10 13:50:00,
2013-08-10 09:55:00,84.4,77.9,30.11,NE,54,4.0,5.0,81,0.00,,,0.00,Wunderground v.1.15,2013-08-10 13:55:00,
2013-08-10 10:00:00,84.0,77.5,30.11,East,86,5.0,7.0,81,0.00,,,0.00,Wunderground v.1.15,2013-08-10 14:00:00,
2013-08-10 10:10:00,84.8,77.9,30.12,NE,35,4.0,7.0,80,0.00,,,0.00,Wunderground v.1.15,2013-08-10 14:10:00,
2013-08-10 10:15:00,85.1,78.2,30.12,ESE,102,4.0,7.0,80,0.00,,,0.00,Wunderground v.1.15,2013-08-10 14:15:00,
2013-08-10 10:20:00,85.5,78.2,30.11,NE,44,3.0,3.0,79,0.00,,,0.00,Wunderground v.1.15,2013-08-10 14:20:00,
2013-08-10 10:25:00,85.1,77.8,30.12,ENE,65,4.0,4.0,79,0.00,,,0.00,Wunderground v.1.15,2013-08-10 14:25:00,
2013-08-10 10:30:00,84.6,77.7,30.12,ENE,76,4.0,7.0,80,0.00,,,0.00,Wunderground v.1.15,2013-08-10 14:30:00,
2013-08-10 10:35:00,84.6,77.7,30.12,NE,41,3.0,7.0,80,0.00,,,0.00,Wunderground v.1.15,2013-08-10 14:35:00,
2013-08-10 10:45:00,85.5,78.6,30.12,NE,48,2.0,7.0,80,0.00,,,0.00,Wunderground v.1.15,2013-08-10 14:45:00,
2013-08-10 10:55:00,86.5,78.4,30.12,NE,53,3.0,7.0,77,0.00,,,0.00,Wunderground v.1.15,2013-08-10 14:55:00,
2013-08-10 11:00:00,86.8,77.9,30.12,ENE,59,3.0,3.0,75,0.00,,,0.00,Wunderground v.1.15,2013-08-10 15:00:00,
2013-08-10 11:10:00,87.8,78.1,30.12,NE,49,2.0,8.0,73,0.00,,,0.00,Wunderground v.1.15,2013-08-10 15:10:00,
2013-08-10 11:20:00,87.8,75.5,30.12,WNW,287,3.0,8.0,67,0.00,,,0.00,Wunderground v.1.15,2013-08-10 15:20:00,
2013-08-10 11:25:00,88.2,75.4,30.12,NE,44,2.0,8.0,66,0.00,,,0.00,Wunderground v.1.15,2013-08-10 15:25:00,
2013-08-10 11:30:00,89.1,75.3,30.12,NNE,26,3.0,8.0,64,0.00,,,0.00,Wunderground v.1.15,2013-08-10 15:30:00,
2013-08-10 11:35:00,89.5,74.8,30.12,WSW,257,5.0,8.0,62,0.00,,,0.00,Wunderground v.1.15,2013-08-10 15:35:00,
2013-08-10 11:40:00,89.6,75.3,30.13,North,355,5.0,5.0,63,0.00,,,0.00,Wunderground v.1.15,2013-08-10 15:40:00,
2013-08-10 11:50:00,90.2,74.9,30.12,NW,313,4.0,8.0,61,0.00,,,0.00,Wunderground v.1.15,2013-08-10 15:50:00,
2013-08-10 11:55:00,89.8,74.1,30.12,ENE,58,5.0,8.0,60,0.00,,,0.00,Wunderground v.1.15,2013-08-10 15:55:00,
2013-08-10 12:00:00,89.7,74.5,30.12,NE,39,7.0,7.0,61,0.00,,,0.00,Wunderground v.1.15,2013-08-10 16:00:00,
2013-08-10 12:10:00,90.8,75.0,30.12,West,269,5.0,5.0,60,0.00,,,0.00,Wunderground v.1.15,2013-08-10 16:10:00,
2013-08-10 12:15:00,91.4,75.1,30.12,NW,313,3.0,9.0,59,0.00,,,0.00,Wunderground v.1.15,2013-08-10 16:15:00,
2013-08-10 12:20:00,91.8,74.4,30.12,NE,44,2.0,2.0,57,0.00,,,0.00,Wunderground v.1.15,2013-08-10 16:20:00,
2013-08-10 12:25:00,92.3,74.9,30.12,NNE,15,2.0,6.0,57,0.00,,,0.00,Wunderground v.1.15,2013-08-10 16:25:00,
2013-08-10 12:30:00,91.5,74.1,30.12,NE,52,5.0,5.0,57,0.00,,,0.00,Wunderground v.1.15,2013-08-10 16:30:00,
2013-08-10 12:35:00,91.9,74.5,30.12,NNE,26,5.0,9.0,57,0.00,,,0.00,Wunderground v.1.15,2013-08-10 16:35:00,
2013-08-10 12:45:00,91.4,74.0,30.11,NE,40,2.0,9.0,57,0.00,,,0.00,Wunderground v.1.15,2013-08-10 16:45:00,
2013-08-10 12:50:00,91.2,73.8,30.11,ENE,75,3.0,3.0,57,0.00,,,0.00,Wunderground v.1.15,2013-08-10 16:50:00,
2013-08-10 12:55:00,91.0,74.2,30.11,ENE,63,4.0,4.0,58,0.00,,,0.00,Wunderground v.1.15,2013-08-10 16:55:00,
2013-08-10 13:00:00,91.0,74.2,30.10,NE,43,5.0,5.0,58,0.00,,,0.00,Wunderground v.1.15,2013-08-10 17:00:00,
2013-08-10 13:10:00,92.0,75.1,30.10,NNE,17,6.0,6.0,58,0.00,,,0.00,Wunderground v.1.15,2013-08-10 17:10:00,
2013-08-10 13:15:00,92.3,74.3,30.10,ENE,65,4.0,9.0,56,0.00,,,0.00,Wunderground v.1.15,2013-08-10 17:15:00,
2013-08-10 13:20:00,92.6,75.1,30.10,NNE,19,4.0,9.0,57,0.00,,,0.00,Wunderground v.1.15,2013-08-10 17:20:00,
2013-08-10 13:25:00,92.7,75.2,30.10,WNW,298,5.0,9.0,57,0.00,,,0.00,Wunderground v.1.15,2013-08-10 17:25:00,
2013-08-10 13:35:00,92.7,74.7,30.09,ENE,61,4.0,8.0,56,0.00,,,0.00,Wunderground v.1.15,2013-08-10 17:35:00,
2013-08-10 13:40:00,93.1,75.1,30.09,ENE,57,4.0,4.0,56,0.00,,,0.00,Wunderground v.1.15,2013-08-10 17:40:00,
2013-08-10 13:45:00,93.9,74.7,30.10,NW,305,3.0,9.0,54,0.00,,,0.00,Wunderground v.1.15,2013-08-10 17:45:00,
2013-08-10 13:50:00,94.1,74.4,30.09,ENE,61,3.0,11.0,53,0.00,,,0.00,Wunderground v.1.15,2013-08-10 17:50:00,
2013-08-10 13:55:00,93.3,73.6,30.09,NW,305,5.0,11.0,53,0.00,,,0.00,Wunderground v.1.15,2013-08-10 17:55:00,
2013-08-10 14:00:00,93.2,74.1,30.09,North,5,5.0,5.0,54,0.00,,,0.00,Wunderground v.1.15,2013-08-10 18:00:00,
2013-08-10 14:10:00,92.4,73.3,30.09,ENE,58,5.0,5.0,54,0.00,,,0.00,Wunderground v.1.15,2013-08-10 18:10:00,
2013-08-10 14:15:00,92.5,74.0,30.08,ENE,62,5.0,10.0,55,0.00,,,0.00,Wunderground v.1.15,2013-08-10 18:15:00,
2013-08-10 14:20:00,91.8,72.8,30.09,East,91,6.0,6.0,54,0.00,,,0.00,Wunderground v.1.15,2013-08-10 18:20:00,
2013-08-10 14:25:00,92.5,74.5,30.08,NW,315,6.0,10.0,56,0.00,,,0.00,Wunderground v.1.15,2013-08-10 18:25:00,
2013-08-10 14:30:00,93.1,72.9,30.08,NE,48,5.0,10.0,52,0.00,,,0.00,Wunderground v.1.15,2013-08-10 18:30:00,
2013-08-10 14:40:00,92.6,73.5,30.08,North,355,7.0,7.0,54,0.00,,,0.00,Wunderground v.1.15,2013-08-10 18:40:00,
2013-08-10 14:45:00,94.0,73.7,30.08,West,281,5.0,10.0,52,0.00,,,0.00,Wunderground v.1.15,2013-08-10 18:45:00,
2013-08-10 14:50:00,94.3,72.2,30.07,East,86,4.0,10.0,49,0.00,,,0.00,Wunderground v.1.15,2013-08-10 18:50:00,
2013-08-10 15:00:00,93.5,73.2,30.07,ENE,69,5.0,11.0,52,0.00,,,0.00,Wunderground v.1.15,2013-08-10 19:00:00,
2013-08-10 15:10:00,93.7,74.0,30.07,WNW,283,6.0,11.0,53,0.00,,,0.00,Wunderground v.1.15,2013-08-10 19:10:00,
2013-08-10 15:15:00,94.4,72.9,30.07,East,86,4.0,11.0,50,0.00,,,0.00,Wunderground v.1.15,2013-08-10 19:15:00,
2013-08-10 15:20:00,93.7,72.3,30.06,East,82,5.0,11.0,50,0.00,,,0.00,Wunderground v.1.15,2013-08-10 19:20:00,
2013-08-10 15:25:00,93.0,72.2,30.06,NNW,331,6.0,11.0,51,0.00,,,0.00,Wunderground v.1.15,2013-08-10 19:25:00,
2013-08-10 15:30:00,94.0,73.7,30.06,North,5,5.0,11.0,52,0.00,,,0.00,Wunderground v.1.15,2013-08-10 19:30:00,
2013-08-10 15:35:00,93.8,72.9,30.06,NE,56,5.0,11.0,51,0.00,,,0.00,Wunderground v.1.15,2013-08-10 19:35:00,
2013-08-10 15:45:00,93.4,73.1,30.06,NE,42,5.0,11.0,52,0.00,,,0.00,Wunderground v.1.15,2013-08-10 19:45:00,
2013-08-10 15:50:00,94.9,73.9,30.06,WNW,284,3.0,3.0,51,0.00,,,0.00,Wunderground v.1.15,2013-08-10 19:50:00,
2013-08-10 15:55:00,94.7,72.6,30.05,NE,53,4.0,7.0,49,0.00,,,0.00,Wunderground v.1.15,2013-08-10 19:55:00,
2013-08-10 16:00:00,93.1,71.1,30.06,ENE,71,7.0,12.0,49,0.00,,,0.00,Wunderground v.1.15,2013-08-10 20:00:00,
2013-08-10 16:10:00,92.8,72.0,30.06,ENE,59,6.0,12.0,51,0.00,,,0.00,Wunderground v.1.15,2013-08-10 20:10:00,
2013-08-10 16:20:00,93.2,73.0,30.06,North,360,6.0,12.0,52,0.00,,,0.00,Wunderground v.1.15,2013-08-10 20:20:00,
2013-08-10 16:25:00,94.5,73.0,30.06,North,11,5.0,12.0,50,0.00,,,0.00,Wunderground v.1.15,2013-08-10 20:25:00,
2013-08-10 16:30:00,94.3,72.2,30.06,NE,53,5.0,5.0,49,0.00,,,0.00,Wunderground v.1.15,2013-08-10 20:30:00,
2013-08-10 16:35:00,93.7,72.8,30.05,ENE,74,5.0,12.0,51,0.00,,,0.00,Wunderground v.1.15,2013-08-10 20:35:00,
2013-08-10 16:40:00,94.4,74.1,30.05,NW,322,2.0,2.0,52,0.00,,,0.00,Wunderground v.1.15,2013-08-10 20:40:00,
2013-08-10 16:45:00,93.9,73.6,30.05,ENE,63,4.0,7.0,52,0.00,,,0.00,Wunderground v.1.15,2013-08-10 20:45:00,
2013-08-10 16:55:00,91.9,74.0,30.05,ENE,71,7.0,12.0,56,0.00,,,0.00,Wunderground v.1.15,2013-08-10 20:55:00,
2013-08-10 17:00:00,91.8,73.3,30.05,ENE,62,6.0,8.0,55,0.00,,,0.00,Wunderground v.1.15,2013-08-10 21:00:00,
2013-08-10 17:10:00,93.1,72.3,30.05,ENE,58,4.0,8.0,51,0.00,,,0.00,Wunderground v.1.15,2013-08-10 21:10:00,
2013-08-10 17:15:00,93.0,73.3,30.05,NE,49,3.0,8.0,53,0.00,,,0.00,Wunderground v.1.15,2013-08-10 21:15:00,
2013-08-10 17:20:00,93.4,71.4,30.05,NNE,16,5.0,8.0,49,0.00,,,0.00,Wunderground v.1.15,2013-08-10 21:20:00,
2013-08-10 17:30:00,92.6,73.0,30.05,NE,51,6.0,10.0,53,0.00,,,0.00,Wunderground v.1.15,2013-08-10 21:30:00,
2013-08-10 17:35:00,91.5,73.6,30.05,ENE,69,7.0,10.0,56,0.00,,,0.00,Wunderground v.1.15,2013-08-10 21:35:00,
2013-08-10 17:40:00,91.0,74.2,30.05,ENE,67,8.0,8.0,58,0.00,,,0.00,Wunderground v.1.15,2013-08-10 21:40:00,
2013-08-10 17:45:00,91.1,74.3,30.04,NE,44,6.0,8.0,58,0.00,,,0.00,Wunderground v.1.15,2013-08-10 21:45:00,
2013-08-10 17:50:00,91.7,73.2,30.04,NE,51,7.0,9.0,55,0.00,,,0.00,Wunderground v.1.15,2013-08-10 21:50:00,
2013-08-10 18:00:00,90.9,73.0,30.05,ENE,65,9.0,9.0,56,0.00,,,0.00,Wunderground v.1.15,2013-08-10 22:00:00,
2013-08-10 18:10:00,90.8,74.0,30.05,NE,42,8.0,8.0,58,0.00,,,0.00,Wunderground v.1.15,2013-08-10 22:10:00,
2013-08-10 18:20:00,90.9,72.0,30.05,NE,50,7.0,7.0,54,0.00,,,0.00,Wunderground v.1.15,2013-08-10 22:20:00,
2013-08-10 18:25:00,90.7,71.8,30.05,NNE,17,8.0,8.0,54,0.00,,,0.00,Wunderground v.1.15,2013-08-10 22:25:00,
2013-08-10 18:30:00,91.0,70.9,30.05,ENE,66,7.0,14.0,52,0.00,,,0.00,Wunderground v.1.15,2013-08-10 22:30:00,
2013-08-10 18:35:00,91.1,71.6,30.05,ENE,64,6.0,14.0,53,0.00,,,0.00,Wunderground v.1.15,2013-08-10 22:35:00,
2013-08-10 18:40:00,90.9,72.0,30.06,ENE,61,6.0,14.0,54,0.00,,,0.00,Wunderground v.1.15,2013-08-10 22:40:00,
2013-08-10 18:50:00,90.3,70.8,30.06,ENE,65,6.0,6.0,53,0.00,,,0.00,Wunderground v.1.15,2013-08-10 22:50:00,
2013-08-10 19:00:00,90.3,71.4,30.06,NNE,23,4.0,12.0,54,0.00,,,0.00,Wunderground v.1.15,2013-08-10 23:00:00,
2013-08-10 19:10:00,89.7,71.4,30.06,NNE,19,5.0,5.0,55,0.00,,,0.00,Wunderground v.1.15,2013-08-10 23:10:00,
2013-08-10 19:15:00,89.3,71.5,30.06,ENE,57,5.0,11.0,56,0.00,,,0.00,Wunderground v.1.15,2013-08-10 23:15:00,
2013-08-10 19:20:00,89.1,71.9,30.06,NE,43,4.0,11.0,57,0.00,,,0.00,Wunderground v.1.15,2013-08-10 23:20:00,
2013-08-10 19:25:00,88.8,72.1,30.06,ENE,67,3.0,11.0,58,0.00,,,0.00,Wunderground v.1.15,2013-08-10 23:25:00,
2013-08-10 19:30:00,88.5,72.3,30.06,NE,49,4.0,11.0,59,0.00,,,0.00,Wunderground v.1.15,2013-08-10 23:30:00,
2013-08-10 19:40:00,87.8,72.7,30.07,ENE,69,5.0,5.0,61,0.00,,,0.00,Wunderground v.1.15,2013-08-10 23:40:00,
2013-08-10 19:45:00,87.5,72.4,30.07,East,84,5.0,11.0,61,0.00,,,0.00,Wunderground v.1.15,2013-08-10 23:45:00,
2013-08-10 19:50:00,87.2,72.6,30.07,ENE,65,6.0,11.0,62,0.00,,,0.00,Wunderground v.1.15,2013-08-10 23:50:00,
2013-08-10 19:55:00,86.8,72.7,30.06,NE,52,6.0,11.0,63,0.00,,,0.00,Wunderground v.1.15,2013-08-10 23:55:00,
2013-08-10 20:00:00,86.4,72.8,30.06,ENE,66,5.0,9.0,64,0.00,,,0.00,Wunderground v.1.15,2013-08-11 00:00:00,
2013-08-10 20:10:00,85.8,72.7,30.07,ENE,66,4.0,4.0,65,0.00,,,0.00,Wunderground v.1.15,2013-08-11 00:10:00,
2013-08-10 20:15:00,85.5,72.8,30.07,ENE,64,4.0,9.0,66,0.00,,,0.00,Wunderground v.1.15,2013-08-11 00:15:00,
2013-08-10 20:20:00,85.2,73.0,30.08,ENE,63,4.0,9.0,67,0.00,,,0.00,Wunderground v.1.15,2013-08-11 00:20:00,
2013-08-10 20:25:00,84.9,73.2,30.08,East,87,3.0,9.0,68,0.00,,,0.00,Wunderground v.1.15,2013-08-11 00:25:00,
2013-08-10 20:30:00,84.7,73.4,30.07,ENE,66,4.0,4.0,69,0.00,,,0.00,Wunderground v.1.15,2013-08-11 00:30:00,
2013-08-10 20:35:00,84.6,73.7,30.07,ENE,70,4.0,9.0,70,0.00,,,0.00,Wunderground v.1.15,2013-08-11 00:35:00,
2013-08-10 20:40:00,84.4,73.5,30.08,ENE,71,4.0,9.0,70,0.00,,,0.00,Wunderground v.1.15,2013-08-11 00:40:00,
2013-08-10 20:50:00,83.9,73.5,30.08,ENE,77,2.0,9.0,71,0.00,,,0.00,Wunderground v.1.15,2013-08-11 00:50:00,
2013-08-10 20:55:00,83.8,73.8,30.08,ENE,78,2.0,9.0,72,0.00,,,0.00,Wunderground v.1.15,2013-08-11 00:55:00,
2013-08-10 21:00:00,83.8,73.8,30.08,ENE,78,2.0,5.0,72,0.00,,,0.00,Wunderground v.1.15,2013-08-11 01:00:00,
2013-08-10 21:10:00,83.5,73.9,30.09,ENE,78,2.0,5.0,73,0.00,,,0.00,Wunderground v.1.15,2013-08-11 01:10:00,
2013-08-10 21:15:00,83.2,74.0,30.09,ENE,77,2.0,5.0,74,0.00,,,0.00,Wunderground v.1.15,2013-08-11 01:15:00,
2013-08-10 21:25:00,82.9,74.6,30.09,ENE,77,2.0,5.0,76,0.00,,,0.00,Wunderground v.1.15,2013-08-11 01:25:00,
2013-08-10 21:30:00,82.7,74.4,30.09,ENE,77,2.0,5.0,76,0.00,,,0.00,Wunderground v.1.15,2013-08-11 01:30:00,
2013-08-10 21:35:00,82.5,74.6,30.09,ENE,77,2.0,5.0,77,0.00,,,0.00,Wunderground v.1.15,2013-08-11 01:35:00,
2013-08-10 21:40:00,82.4,74.5,30.09,ENE,77,2.0,5.0,77,0.00,,,0.00,Wunderground v.1.15,2013-08-11 01:40:00,
2013-08-10 21:45:00,82.4,74.5,30.10,ENE,77,2.0,5.0,77,0.00,,,0.00,Wunderground v.1.15,2013-08-11 01:45:00,
2013-08-10 21:55:00,82.0,74.5,30.10,ENE,77,2.0,5.0,78,0.00,,,0.00,Wunderground v.1.15,2013-08-11 01:55:00,
2013-08-10 22:00:00,81.8,74.6,30.10,ENE,77,2.0,5.0,79,0.00,,,0.00,Wunderground v.1.15,2013-08-11 02:00:00,
2013-08-10 22:10:00,81.4,74.6,30.11,ENE,77,2.0,5.0,80,0.00,,,0.00,Wunderground v.1.15,2013-08-11 02:10:00,
2013-08-10 22:15:00,81.2,74.8,30.10,ENE,77,1.0,5.0,81,0.00,,,0.00,Wunderground v.1.15,2013-08-11 02:15:00,
2013-08-10 22:20:00,81.0,74.6,30.11,ENE,77,1.0,5.0,81,0.00,,,0.00,Wunderground v.1.15,2013-08-11 02:20:00,
2013-08-10 22:30:00,80.7,74.7,30.11,ENE,77,3.0,3.0,82,0.00,,,0.00,Wunderground v.1.15,2013-08-11 02:30:00,
2013-08-10 22:35:00,80.4,74.8,30.11,ENE,77,1.0,5.0,83,0.00,,,0.00,Wunderground v.1.15,2013-08-11 02:35:00,
2013-08-10 22:40:00,80.3,74.7,30.11,ENE,77,1.0,5.0,83,0.00,,,0.00,Wunderground v.1.15,2013-08-11 02:40:00,
2013-08-10 22:45:00,80.2,74.9,30.11,ENE,77,1.0,5.0,84,0.00,,,0.00,Wunderground v.1.15,2013-08-11 02:45:00,
2013-08-10 22:50:00,80.1,74.8,30.11,ENE,77,2.0,2.0,84,0.00,,,0.00,Wunderground v.1.15,2013-08-11 02:50:00,
2013-08-10 22:55:00,79.9,75.0,30.11,ENE,77,2.0,5.0,85,0.00,,,0.00,Wunderground v.1.15,2013-08-11 02:55:00,
2013-08-10 23:05:00,79.8,74.9,30.12,ENE,77,3.0,6.0,85,0.00,,,0.00,Wunderground v.1.15,2013-08-11 03:05:00,
2013-08-10 23:15:00,79.8,75.2,30.11,ENE,77,2.0,6.0,86,0.00,,,0.00,Wunderground v.1.15,2013-08-11 03:15:00,
2013-08-10 23:25:00,79.6,75.0,30.12,ENE,77,1.0,6.0,86,0.00,,,0.00,Wunderground v.1.15,2013-08-11 03:25:00,
2013-08-10 23:30:00,79.4,74.8,30.12,ENE,77,1.0,1.0,86,0.00,,,0.00,Wunderground v.1.15,2013-08-11 03:30:00,
2013-08-10 23:35:00,79.2,75.0,30.12,ENE,78,0.0,6.0,87,0.00,,,0.00,Wunderground v.1.15,2013-08-11 03:35:00,
2013-08-10 23:45:00,79.1,74.9,30.12,ENE,77,0.0,6.0,87,0.00,,,0.00,Wunderground v.1.15,2013-08-11 03:45:00,